Regional Weather Roundup
Issued by NWS Little Rock, AR

Home | Current Version | Previous Version | Graphics & Text | Print | Product List | Glossary On
Versions: 1 2 3 4 5 6 7 8 9 10 11 12 13 14 15 16 17 18 19 20 21 22 23 24 25 26 27 28 29 30 31 32 33 34 35 36 37 38 39 40 41 42 43 44 45 46 47 48 49 50
626
ASUS44 KLZK 220405
RWRLZK

WEATHER ROUNDUP FOR ARKANSAS
NATIONAL WEATHER SERVICE LITTLE ROCK AR
1100 PM CDT SAT OCT 21 2017

NOTE: "FAIR" INDICATES FEW OR NO CLOUDS BELOW 12,000 FEET WITH NO
SIGNIFICANT WEATHER AND/OR OBSTRUCTIONS TO VISIBILITY.

ARZ001-003-010-029-220500-
NORTHWEST ARKANSAS

CITY           SKY/WX    TMP DP  RH WIND       PRES   REMARKS
FAYETTEVILLE   PTCLDY    73  68  84 SE12G21   29.90S
FORT SMITH     CLOUDY    73  68  84 E8        29.89R
HARRISON       MOCLDY    72  66  81 S13G21    29.94F
BENTONVILLE    CLOUDY    72  66  81 S10       29.92F
ROGERS         CLOUDY    72  66  81 SE14      29.91F
SILOAM SPGS    PTCLDY    72  66  81 SE14      29.90R
HIGHFILL       CLOUDY    73  67  81 S15       29.90F
$$

ARZ004-005-016-220500-
NORTH CENTRAL ARKANSAS

CITY           SKY/WX    TMP DP  RH WIND       PRES   REMARKS
BATESVILLE     CLOUDY    73  65  75 SE12G18   29.98S
FLIPPIN        CLOUDY    74  67  78 VRB5      29.96R
MTN HOME       CLOUDY    73  67  81 S5        29.96R
$$

ARZ040-041-220500-
WEST CENTRAL ARKANSAS

CITY           SKY/WX    TMP DP  RH WIND       PRES   REMARKS
MENA           MOCLDY    77  77 100 SE7G16    29.96R
$$

ARZ009-017-025-026-028-220500-
NORTHEAST ARKANSAS

CITY           SKY/WX    TMP DP  RH WIND       PRES   REMARKS
JONESBORO      MOCLDY    73  65  75 SE16G24   30.01F
NEWPORT        PTCLDY    72  65  78 S15       29.99F
WALNUT RIDGE     N/A    N/A N/A N/A MISG        N/A
BLYTHEVILLE    PTCLDY    71  64  78 S13G20    30.04F
$$

ARZ022-023-033-042-044-220500-
CENTRAL ARKANSAS

CITY           SKY/WX    TMP DP  RH WIND       PRES   REMARKS
LITTLE ROCK    MOCLDY    72  69  90 SE14      29.97S
N LITTLE ROCK    N/A     73  67  82 S10G18    29.97F
JACKSONVILLE   CLOUDY    74  68  81 SE6       29.96F
SEARCY         CLOUDY    74  67  78 SE7         N/A
HOT SPRINGS    MOCLDY    75  71  87 SE7       29.97R
RUSSELLVILLE   PTCLDY    75  69  81 SE6       29.94R
CLINTON        CLOUDY    75  68  78 CALM      29.97R
$$

ARZ036-220500-
EAST ARKANSAS

CITY           SKY/WX    TMP DP  RH WIND       PRES   REMARKS
WEST MEMPHIS   MOCLDY    73  64  73 S20       30.03F
$$

ARZ050-053-066-070-073-220500-
SOUTHWEST ARKANSAS

CITY           SKY/WX    TMP DP  RH WIND       PRES   REMARKS
ARKADELPHIA    MOCLDY    74  70  87 S7        29.97S
CAMDEN         MOCLDY    73  68  83 SE8G14    29.97F
TEXARKANA      CLOUDY    76  70  82 S9        29.95R
EL DORADO      PTCLDY    73  72  96 SE10      30.00R
DE QUEEN       CLOUDY    77  71  82 SE5       29.92R
$$

ARZ056-057-069-220500-
SOUTHEAST ARKANSAS

CITY           SKY/WX    TMP DP  RH WIND       PRES   REMARKS
PINE BLUFF     CLEAR     74  68  81 SE13G24   29.99F
STUTTGART      CLEAR     73  67  81 SE13      30.00F
MONTICELLO     MOCLDY    73  69  87 SE9G21    30.02F

$$






USA.gov is the U.S. government's official web portal to all federal, state and local government web resources and services.